Phillips, WI

3:14 PM CDT on April 22, 2018 (GMT -0500)
Price County

Weather History for KPBH - December, 2013

Change the Weather History Date:

Monday, December 9, 2013

  Actual Average Record
Temperature  
Mean Temperature -2 °F -  
Max Temperature 9 °F 29 °F 42 °F (1998)
Min Temperature -13 °F 16 °F -13 °F (2013)
Degree Days  
Heating Degree Days 67    
Moisture  
Dew Point -5 °F    
Average Humidity 80    
Maximum Humidity 88    
Minimum Humidity 66    
Precipitation  
Precipitation 0.00 in - - ()
Sea Level Pressure  
Sea Level Pressure 29.87 in    
Wind  
Wind Speed 5 mph (SW)    
Max Wind Speed 20 mph    
Max Gust Speed 28 mph    
Visibility 6 miles    
Events Snow    
Averages and records for this station are not official NWS values.
T = Trace of Precipitation, MM = Missing Value Source: NWS Daily Summary

Daily Weather History Graph

Daily Weather History Graph

Search for Another Location

Airport or City:

Astronomy

Dec. 09, 2013 Rise Set
Actual Time 7:30 AM CST 4:17 PM CST
Civil Twilight 6:56 AM CST 4:51 PM CST
Nautical Twilight 6:19 AM CST 5:29 PM CST
Astronomical Twilight 5:42 AM CST 6:05 PM CST
Moon 12:05 PM CST (12/9) No Moon Set
Length of Visible Light 9h 54m
Length of Day
8h 46m
Waxing Crescent, 51% of the Moon is Illuminated
Dec 9
Waxing Crescent
Dec 17
Full
Dec 25
Last Quarter
Jan 1
New
Jan 7
First Quarter

Hourly Weather History & Observations

Time (CST) Temp. Windchill Dew Point Humidity Pressure Visibility Wind Dir Wind Speed Gust Speed Precip Events Conditions
12:15 AM 9.5 °F - 6.6 °F 88% 29.91 in 1.8 mi Calm Calm - N/A Snow Light Snow
12:35 AM 9.5 °F 3.0 °F 6.6 °F 88% 29.90 in 1.5 mi WSW 3.5 mph - N/A Snow Light Snow
12:55 AM 9.5 °F - 6.6 °F 88% 29.89 in 2.0 mi Calm Calm - N/A Snow Light Snow
1:15 AM 9.5 °F - 6.6 °F 88% 29.88 in 2.0 mi Calm Calm - N/A Snow Light Snow
1:35 AM 9.5 °F - 6.4 °F 87% 29.88 in 3.0 mi Calm Calm - N/A Snow Light Snow
1:55 AM 9.1 °F - 5.9 °F 87% 29.87 in 2.0 mi Calm Calm - N/A Snow Light Snow
2:15 AM 8.6 °F - 5.5 °F 87% 29.87 in 2.0 mi Calm Calm - N/A Snow Light Snow
2:35 AM 8.4 °F - 5.0 °F 86% 29.87 in 2.0 mi Calm Calm - N/A Snow Light Snow
2:55 AM 8.2 °F - 4.8 °F 86% 29.86 in 2.0 mi Calm Calm - N/A Snow Light Snow
3:15 AM 8.1 °F - 4.8 °F 87% 29.86 in 2.5 mi Calm Calm - N/A Snow Light Snow
3:35 AM 7.7 °F - 4.3 °F 86% 29.85 in 4.0 mi Calm Calm - N/A Snow Light Snow
3:55 AM 7.7 °F 1.0 °F 4.1 °F 85% 29.84 in 5.0 mi WSW 3.5 mph - N/A Snow Light Snow
4:55 AM 7.2 °F 0.3 °F 3.7 °F 86% 29.83 in 2.5 mi WSW 3.5 mph - N/A Snow Light Snow
5:15 AM 7.2 °F -1.5 °F 3.6 °F 85% 29.82 in 3.0 mi WSW 4.6 mph - N/A Snow Light Snow
5:35 AM 7.2 °F -1.5 °F 3.2 °F 84% 29.82 in 5.0 mi West 4.6 mph - N/A Snow Light Snow
5:55 AM 6.8 °F -0.1 °F 3.2 °F 85% 29.82 in 4.0 mi West 3.5 mph - N/A Snow Light Snow
6:15 AM 6.8 °F -0.1 °F 3.0 °F 84% 29.82 in 5.0 mi WSW 3.5 mph - N/A Snow Light Snow
6:35 AM 6.3 °F -0.7 °F 2.5 °F 84% 29.82 in 5.0 mi WSW 3.5 mph - N/A Snow Light Snow
6:55 AM 4.8 °F -2.3 °F 1.4 °F 86% 29.82 in 4.0 mi WSW 3.5 mph - N/A Snow Light Snow
7:15 AM 3.2 °F -4.2 °F 0.1 °F 87% 29.82 in 10.0 mi WSW 3.5 mph - N/A Snow Light Snow
7:35 AM 4.6 °F -7.4 °F 1.4 °F 86% 29.82 in 10.0 mi WSW 6.9 mph - N/A Snow Light Snow
7:55 AM 4.8 °F -5.8 °F 1.2 °F 85% 29.82 in 5.0 mi WSW 5.8 mph - N/A Snow Light Snow
8:15 AM 5.0 °F -5.6 °F 1.0 °F 84% 29.82 in 5.0 mi WSW 5.8 mph - N/A Snow Light Snow
8:35 AM 5.0 °F -8.1 °F 1.0 °F 84% 29.82 in 3.0 mi WSW 8.1 mph - N/A Snow Light Snow
8:55 AM 5.0 °F -9.1 °F 0.5 °F 82% 29.82 in 3.0 mi WSW 9.2 mph - N/A Snow Light Snow
9:15 AM 5.0 °F -10.0 °F 0.5 °F 82% 29.82 in 2.5 mi WSW 10.4 mph - N/A Snow Light Snow
9:35 AM 5.0 °F -6.9 °F -0.2 °F 79% 29.82 in 5.0 mi WSW 6.9 mph - N/A Snow Light Snow
9:55 AM 5.0 °F -9.1 °F -0.2 °F 79% 29.82 in 5.0 mi WSW 9.2 mph - N/A   Haze
10:15 AM 4.8 °F -10.2 °F -0.9 °F 77% 29.82 in 4.0 mi SW 10.4 mph - N/A   Haze
10:35 AM 5.0 °F -10.8 °F -0.6 °F 78% 29.82 in 4.0 mi WSW 11.5 mph - N/A   Haze
10:55 AM 4.8 °F -11.1 °F -1.3 °F 76% 29.81 in 2.5 mi WSW 11.5 mph 19.6 mph N/A   Haze
11:15 AM 4.6 °F -15.2 °F -2.7 °F 72% 29.81 in 5.0 mi WSW 18.4 mph 24.2 mph N/A   Haze
11:35 AM 4.5 °F -14.9 °F -1.1 °F 78% 29.80 in 1.5 mi WSW 17.3 mph 20.7 mph N/A Snow Light Snow
11:55 AM 2.8 °F -15.7 °F -3.6 °F 74% 29.81 in 4.0 mi WSW 15.0 mph 19.6 mph N/A   Haze
12:15 PM 2.8 °F -15.7 °F -6.3 °F 66% 29.80 in 2.0 mi WSW 15.0 mph 24.2 mph N/A   Haze
12:35 PM 2.8 °F -18.1 °F -5.8 °F 67% 29.80 in 5.0 mi SW 19.6 mph 24.2 mph N/A   Haze
12:55 PM 1.4 °F -18.8 °F -7.6 °F 66% 29.81 in 5.0 mi WSW 17.3 mph 27.6 mph N/A   Haze
1:15 PM 0.7 °F -18.5 °F -6.0 °F 74% 29.83 in 2.0 mi WSW 15.0 mph 20.7 mph N/A   Haze
1:35 PM -0.0 °F -17.1 °F -8.0 °F 69% 29.83 in 7.0 mi WSW 11.5 mph 23.0 mph N/A   Overcast
1:55 PM -0.4 °F -20.5 °F -8.5 °F 69% 29.84 in 3.0 mi WSW 16.1 mph 25.3 mph N/A   Haze
2:15 PM -0.9 °F -20.6 °F -8.7 °F 70% 29.85 in 4.0 mi WSW 15.0 mph 23.0 mph N/A   Haze
2:35 PM -1.7 °F -22.2 °F -8.5 °F 73% 29.86 in 2.5 mi WSW 16.1 mph 24.2 mph N/A   Haze
2:55 PM -2.2 °F -20.7 °F -9.4 °F 71% 29.87 in 4.0 mi SW 12.7 mph 18.4 mph N/A   Haze
3:15 PM -3.1 °F -22.6 °F -10.1 °F 72% 29.88 in 4.0 mi WSW 13.8 mph 21.9 mph N/A   Haze
3:35 PM -3.3 °F -21.2 °F -10.1 °F 73% 29.89 in 4.0 mi WSW 11.5 mph 18.4 mph N/A   Haze
3:55 PM -4.0 °F -22.1 °F -10.5 °F 74% 29.90 in 7.0 mi SW 11.5 mph - N/A   Overcast
4:15 PM -4.4 °F -23.4 °F -11.2 °F 72% 29.92 in 10.0 mi WSW 12.7 mph 18.4 mph N/A   Overcast
4:35 PM -4.9 °F -22.3 °F -11.4 °F 74% 29.92 in 10.0 mi WSW 10.4 mph - N/A   Overcast
4:55 PM -5.3 °F -21.7 °F -11.4 °F 75% 29.94 in 10.0 mi WSW 9.2 mph 17.3 mph N/A   Mostly Cloudy
5:15 PM -5.8 °F -23.4 °F -12.1 °F 74% 29.94 in 10.0 mi WSW 10.4 mph - N/A   Scattered Clouds
5:35 PM -6.2 °F -20.4 °F -12.1 °F 75% 29.93 in 10.0 mi WSW 6.9 mph - N/A   Clear
5:55 PM -6.7 °F -22.3 °F -12.1 °F 77% 29.94 in 10.0 mi WSW 8.1 mph - N/A   Clear
6:15 PM -6.7 °F -22.3 °F -11.9 °F 78% 29.95 in 10.0 mi WSW 8.1 mph - N/A   Clear
6:35 PM -6.7 °F -19.5 °F -11.7 °F 79% 29.96 in 10.0 mi WSW 5.8 mph - N/A   Clear
6:55 PM -6.9 °F -23.7 °F -11.7 °F 79% 29.96 in 10.0 mi WSW 9.2 mph - N/A   Clear
7:15 PM -7.4 °F -20.4 °F -12.1 °F 80% 29.96 in 10.0 mi WSW 5.8 mph - N/A   Clear
7:35 PM -7.6 °F -22.1 °F -12.3 °F 80% 29.96 in 10.0 mi WSW 6.9 mph - N/A   Clear
7:55 PM -7.8 °F -19.0 °F -12.5 °F 80% 29.94 in 10.0 mi SW 4.6 mph - N/A   Clear
8:15 PM -8.1 °F -22.7 °F -12.5 °F 81% 29.95 in 10.0 mi SW 6.9 mph - N/A   Clear
8:35 PM -8.5 °F -19.8 °F -12.5 °F 83% 29.93 in 10.0 mi SW 4.6 mph - N/A   Clear
8:55 PM -8.5 °F -19.8 °F -12.6 °F 82% 29.93 in 10.0 mi SW 4.6 mph - N/A   Clear
9:15 PM -8.7 °F -20.0 °F -13.0 °F 81% 29.94 in 10.0 mi SSW 4.6 mph - N/A   Clear
9:35 PM -9.4 °F -22.7 °F -13.5 °F 82% 29.94 in 10.0 mi SW 5.8 mph - N/A   Clear
9:55 PM -9.8 °F -21.3 °F -14.1 °F 81% 29.93 in 10.0 mi SSW 4.6 mph - N/A   Clear
10:15 PM -10.1 °F -21.7 °F -14.3 °F 82% 29.94 in 10.0 mi SSW 4.6 mph - N/A   Clear
10:35 PM -10.7 °F -22.3 °F -14.8 °F 82% 29.92 in 10.0 mi SSE 4.6 mph - N/A   Clear
10:55 PM -12.1 °F -25.9 °F -16.1 °F 83% 29.92 in 10.0 mi South 5.8 mph - N/A   Clear
11:15 PM -12.5 °F -26.3 °F -16.6 °F 82% 29.91 in 10.0 mi South 5.8 mph - N/A   Clear
11:35 PM -13.0 °F -25.1 °F -17.1 °F 82% 29.90 in 10.0 mi South 4.6 mph - N/A   Clear
11:55 PM -12.8 °F -22.5 °F -16.8 °F 82% 29.90 in 10.0 mi South 3.5 mph - N/A   Clear